Regional Weather Roundup
Issued by NWS Upton, NY

Current Version | Previous Version | Text Only | Print | Product List | Glossary On
Versions: 1 2 3 4 5 6 7 8 9 10 11 12 13 14 15 16 17 18 19 20 21 22 23 24 25 26 27 28 29 30 31 32 33 34 35 36 37 38 39 40 41 42 43 44
000
ASUS41 KOKX 280205
RWROKX

REGIONAL WEATHER ROUNDUP
NATIONAL WEATHER SERVICE NEW YORK NY
900 PM EST SAT DEC 27 2014

NOTE: "FAIR" INDICATES FEW OR NO CLOUDS BELOW 12,000 FEET WITH NO
SIGNIFICANT WEATHER AND/OR OBSTRUCTIONS TO VISIBILITY.

NYZ071-072-176-178-NJZ106-104-280300-
NEW YORK CITY METRO AREA


CITY           SKY/WX    TMP DP  RH WIND       PRES   REMARKS
CENTRAL PARK   CLEAR     52  31  44 SW8       30.16F
LAGUARDIA APRT MOCLDY    48  36  63 S5        30.15S
KENNEDY INTL   PTCLDY    45  37  73 S7        30.16F
NEWARK/LIBERTY PTCLDY    45  34  65 S5        30.15S
BRNX BOT. GARD   N/A     45  36  70 E2        30.14S
TETERBORO      CLEAR     42  35  76 CALM      30.14S
$$

NYZ177-179-078>081-280300-
LONG ISLAND NEW YORK

CITY           SKY/WX    TMP DP  RH WIND       PRES   REMARKS
FARMINGDALE    CLEAR     44  39  82 SW3       30.16S
ISLIP          MOCLDY    40  37  89 CALM      30.14S
SHIRLEY        CLEAR     35  31  85 CALM      30.16F
WESTHAMPTON    CLEAR     29  24  82 CALM      30.17F
MONTAUK POINT    N/A     46  38  73 SW5       30.16F
$$

NYZ052-065-067-280300-
HUDSON VALLEY

CITY           SKY/WX    TMP DP  RH WIND       PRES   REMARKS
WHITE PLAINS   CLEAR     39  32  76 CALM      30.12F
NEWBURGH       NOT AVBL
MONTGOMERY     PTCLDY    34  32  92 CALM      30.09F
POUGHKEEPSIE   PTCLDY    37  32  82 CALM      30.10F
ALBANY         MOCLDY    46  33  60 S10       30.04F
$$

NJZ001-105-106-008-010-013-015-019>022-104-280300-
NEW JERSEY

CITY           SKY/WX    TMP DP  RH WIND       PRES   REMARKS
NEWARK/LIBERTY PTCLDY    45  34  65 S5        30.15S
TETERBORO      CLEAR     42  35  76 CALM      30.14S
CALDWELL       CLEAR     40  33  76 S3        30.14F
MORRISTOWN     CLEAR     36  32  87 CALM      30.15S
SOMERVILLE     CLEAR     35  31  85 CALM      30.14R
SUSSEX         PTCLDY    34  32  92 CALM      30.12F
ANDOVER        NOT AVBL
TRENTON        CLEAR     45  30  55 S5        30.14F
MILLVILLE      PTCLDY    36  34  92 CALM      30.16F
ATLANTIC CITY  PTCLDY    45  41  86 S7        30.16F
WRIGHTSTOWN    PTCLDY    40  37  86 S1        30.13F
TOMS RIVER     FAIR      37  34  87 CALM      30.16F
BELMAR         CLEAR     45  34  65 SW7       30.16S
$$

PAZ047>061-062-071-280300-
EASTERN PENNSYLVANIA

CITY           SKY/WX    TMP DP  RH WIND       PRES   REMARKS
PHILADELPHIA   MOCLDY    45  34  65 SW5       30.16F
ALLENTOWN      PTCLDY    40  33  76 NW3       30.13F
SCRANTON       CLOUDY    49  33  54 S6        30.07F
$$

CTZ002-004>006-009-010-012-RIZ004-006-007-MAZ004-011-015-280300-
SOUTHERN NEW ENGLAND
 IN CT

CITY           SKY/WX    TMP DP  RH WIND       PRES   REMARKS
BRADLEY INTL   MOCLDY    42  32  67 S8        30.10F
HARTFORD       FAIR      40  33  76 S6        30.12F
DANBURY        CLEAR     34  29  82 CALM      30.13F
WTRBRY/OXFORD  PTCLDY    43  30  61 S3        30.12F
BRIDGEPORT     CLEAR     44  39  82 SW6       30.14F
MERIDEN        PTCLDY    34  30  85 CALM      30.13F
NEW HAVEN      CLEAR     46  37  71 SW3       30.14F
CHESTER        FAIR      43  36  75 SW6       30.13F
GROTON         CLEAR     41  36  82 SW5       30.14F
WILLIMANTIC    PTCLDY    34  30  85 CALM      30.13F

 IN RI

CITY           SKY/WX    TMP DP  RH WIND       PRES   REMARKS
PROVIDENCE     MOCLDY    42  32  67 SW6       30.13F
BLOCK ISLAND   PTCLDY    45  37  76 SW8       30.14F
WESTERLY       CLEAR     40  36  86 CALM      30.15F

 IN MA

CITY           SKY/WX    TMP DP  RH WIND       PRES   REMARKS
BOSTON         MOCLDY    44  34  67 SW9       30.11F
WORCESTER      MOCLDY    40  32  73 SW12      30.08F WCI  33
WESTFIELD      MOCLDY    35  30  82 CALM      30.09F
PROVINCETOWN   MOCLDY    43  37  81 SW10      30.13F
NANTUCKET      MOCLDY    44  40  85 W7        30.14F
$$

ANZ330-335-338-340-345-350-353-355-280300-
COASTAL MARINE OBSERVATIONS


STATION/POSITION TIME  SKY/WX   TEMP    WIND        PRES    VSBY  WAVE
                                AIR SEA DIR/SP/G                  HT/PER
                 (UTC)          (F)     (DEG/KT/KT) (MB)    (MI)  (FT/S)
NY HARB ENTRANCE 0200            47 45  220/ 12/ 14 1021.4          3/14
4S FIRE IS       0200               47                N/A           3/13
20S FIRE ISLAND  0100            49 49              1022.2          3/13
23SW MTP         0200                                 N/A           3/15
HUDSON CANYON    0200            53 55  230/ 14/ 16 1021.7          4/13
EXECUTION ROCKS  0200            45 42  220/  6/  8   N/A
WESTERN LI SOUND 0200            44      CALM  /  2   N/A           0
CENTRAL LI SOUND 0100            45 44  210/  8/ 10   N/A           1/ 2
EASTERN LI SOUND NOT AVBL
ROBBINS REEF     0200            46                 1019.6
$$


>>>>>>>>>>>>>>>>>>>>>>>>>>>> KEY <<<<<<<<<<<<<<<<<<<<<<<<<<<
>                                                          <
>     SKY/WX - SKY CONDITION/PRESENT WEATHER               <
>     TMP    - TEMPERATURE IN FAHRENHEIT                   <
>     DP     - DEWPOINT IN FAHRENHEIT                      <
>     RH     - RELATIVE HUMIDITY IN PERCENT                <
>     WIND   - DIRECTION AND SPEED IN MPH                  <
>     PRES   - MEAN SEA LEVEL PRESSURE IN INCHES OF HG     <
>     WCI    - WIND CHILL INDEX                            <
>     VSB    - VISIBILITY IN MILES                         <
>     HX     - HEAT INDEX                                  <
>     TC     - TEMPERATURE IN CELSIUS                      <
>     VRB    - VARIABLE WIND DIRECTION                     <
>                                                          <
>>>>>>>>>>>>>>>>>>>>>>>>>>>> KEY <<<<<<<<<<<<<<<<<<<<<<<<<<<




USA.gov is the U.S. government's official web portal to all federal, state and local government web resources and services.